Meteo pe oră la Dziewiecioly

Astăzi, 2 Martie, Marţi

Timp Temperatura Precipitaţii Vânt Presiune Umiditate
00:00 +2°C° 0 mm 1 m/s 749 mmHg 90%
01:00 +1°C° 0 mm 1 m/s 749 mmHg 90%
02:00 -1°C° 0 mm 2 m/s 749 mmHg 90%
03:00 -1°C° 0 mm 2 m/s 748 mmHg 90%
04:00 -1°C° 0 mm 2 m/s 748 mmHg 90%
05:00 -1°C° 0 mm 3 m/s 748 mmHg 88%
06:00 0°C° 0 mm 3 m/s 748 mmHg 87%
07:00 0°C° 0 mm 3 m/s 748 mmHg 85%
08:00 +2°C° 0 mm 3 m/s 748 mmHg 77%
09:00 +3°C° 0 mm 3 m/s 748 mmHg 69%
10:00 +5°C° 0 mm 3 m/s 748 mmHg 61%
11:00 +6°C° 0 mm 4 m/s 748 mmHg 58%
12:00 +8°C° 0 mm 4 m/s 748 mmHg 56%
13:00 +10°C° 0 mm 4 m/s 748 mmHg 53%
14:00 +10°C° 0 mm 4 m/s 747 mmHg 55%
15:00 +8°C° 0 mm 4 m/s 747 mmHg 57%
16:00 +9°C° 0 mm 3 m/s 746 mmHg 59%
17:00 +8°C° 0 mm 3 m/s 747 mmHg 64%
18:00 +5°C° 0 mm 3 m/s 747 mmHg 69%
19:00 +4°C° 0 mm 3 m/s 747 mmHg 74%
20:00 +4°C° 0 mm 3 m/s 747 mmHg 76%
21:00 +4°C° 0 mm 2 m/s 747 mmHg 79%
22:00 +4°C° 0 mm 2 m/s 747 mmHg 81%
23:00 +3°C° 0 mm 2 m/s 747 mmHg 82%

Mâine, 3 Martie, Miercuri

Timp Temperatura Precipitaţii Vânt Presiune Umiditate
00:00 +4°C° 0 mm 1 m/s 747 mmHg 83%
01:00 +4°C° 0 mm 1 m/s 747 mmHg 85%
02:00 +3°C° 0 mm 1 m/s 747 mmHg 85%
03:00 +3°C° 0 mm 1 m/s 746 mmHg 85%
04:00 +3°C° 0 mm 1 m/s 746 mmHg 85%
05:00 +3°C° 0 mm 1 m/s 746 mmHg 85%
06:00 +3°C° 0 mm 1 m/s 746 mmHg 84%
07:00 +3°C° 0 mm 1 m/s 746 mmHg 84%
08:00 +4°C° 0 mm 1 m/s 746 mmHg 77%
09:00 +5°C° 0 mm 0 m/s 746 mmHg 71%
10:00 +7°C° 0 mm 0 m/s 746 mmHg 64%
11:00 +8°C° 0 mm 0 m/s 745 mmHg 59%
12:00 +10°C° 0 mm 1 m/s 745 mmHg 55%
13:00 +11°C° 0 mm 1 m/s 744 mmHg 50%
14:00 +11°C° 0 mm 1 m/s 744 mmHg 51%
15:00 +11°C° 0 mm 1 m/s 743 mmHg 53%
16:00 +11°C° 0 mm 1 m/s 742 mmHg 54%
17:00 +10°C° 0 mm 1 m/s 742 mmHg 57%
18:00 +9°C° 0 mm 1 m/s 742 mmHg 61%
19:00 +7°C° 0 mm 1 m/s 742 mmHg 65%
20:00 +6°C° 0 mm 2 m/s 741 mmHg 68%
21:00 +5°C° 0 mm 2 m/s 741 mmHg 70%
22:00 +4°C° 0 mm 3 m/s 740 mmHg 72%
23:00 +4°C° 0 mm 3 m/s 740 mmHg 74%

Poimâine, 4 Martie, Joi

Timp Temperatura Precipitaţii Vânt Presiune Umiditate
00:00 +3°C° 0 mm 3 m/s 739 mmHg 76%
01:00 +3°C° 0 mm 3 m/s 739 mmHg 77%
02:00 +3°C° 0 mm 4 m/s 738 mmHg 78%
03:00 +1°C° 0 mm 4 m/s 738 mmHg 79%
04:00 +1°C° 0 mm 4 m/s 737 mmHg 80%
05:00 +1°C° 0 mm 4 m/s 737 mmHg 80%
06:00 +1°C° 0 mm 4 m/s 736 mmHg 79%
07:00 +1°C° 0 mm 4 m/s 736 mmHg 79%
08:00 +3°C° 0 mm 5 m/s 736 mmHg 73%
09:00 +6°C° 0 mm 5 m/s 735 mmHg 66%
10:00 +8°C° 0 mm 5 m/s 735 mmHg 60%
11:00 +9°C° 0 mm 5 m/s 735 mmHg 58%
12:00 +9°C° 0 mm 5 m/s 734 mmHg 55%
13:00 +10°C° 0 mm 5 m/s 734 mmHg 53%
14:00 +10°C° 0 mm 5 m/s 733 mmHg 55%
15:00 +11°C° 0 mm 4 m/s 733 mmHg 58%
16:00 +10°C° 0 mm 4 m/s 732 mmHg 60%
17:00 +9°C° 0 mm 3 m/s 732 mmHg 65%
18:00 +9°C° 0 mm 3 m/s 732 mmHg 69%
19:00 +8°C° 0 mm 3 m/s 732 mmHg 73%
20:00 +7°C° 0 mm 3 m/s 731 mmHg 74%
21:00 +7°C° 0 mm 3 m/s 731 mmHg 75%
22:00 +7°C° 0 mm 3 m/s 731 mmHg 75%
23:00 +7°C° 0.1 mm 3 m/s 730 mmHg 78%

5 Martie, Vineri

Timp Temperatura Precipitaţii Vânt Presiune Umiditate
00:00 +7°C° 0.1 mm 3 m/s 730 mmHg 81%
01:00 +7°C° 0.1 mm 3 m/s 730 mmHg 84%
02:00 +5°C° 0.5 mm 4 m/s 729 mmHg 85%
03:00 +5°C° 0.5 mm 4 m/s 729 mmHg 87%
04:00 +5°C° 0.5 mm 5 m/s 729 mmHg 88%
05:00 +3°C° 1 mm 5 m/s 729 mmHg 90%
06:00 +2°C° 1 mm 5 m/s 729 mmHg 92%
07:00 +1°C° 1 mm 6 m/s 730 mmHg 94%
08:00 0°C° 0.1 mm 5 m/s 730 mmHg 92%
09:00 0°C° 0.1 mm 5 m/s 731 mmHg 90%
10:00 0°C° 0.1 mm 4 m/s 732 mmHg 88%
11:00 0°C° 0.1 mm 5 m/s 732 mmHg 84%
12:00 0°C° 0.1 mm 5 m/s 733 mmHg 80%
13:00 0°C° 0.1 mm 5 m/s 733 mmHg 76%
14:00 0°C° 0 mm 5 m/s 734 mmHg 74%
15:00 0°C° 0 mm 4 m/s 734 mmHg 72%
16:00 0°C° 0 mm 4 m/s 735 mmHg 70%
17:00 -1°C° 0.1 mm 4 m/s 735 mmHg 71%
18:00 0°C° 0.1 mm 3 m/s 736 mmHg 72%
19:00 -1°C° 0.1 mm 3 m/s 737 mmHg 73%
20:00 -1°C° 0 mm 3 m/s 737 mmHg 71%
21:00 -2°C° 0 mm 3 m/s 738 mmHg 69%
22:00 -2°C° 0 mm 2 m/s 738 mmHg 67%
23:00 -2°C° 0 mm 2 m/s 739 mmHg 68%

6 Martie, Sâmbătă

Timp Temperatura Precipitaţii Vânt Presiune Umiditate
00:00 -2°C° 0 mm 2 m/s 739 mmHg 69%
01:00 -2°C° 0 mm 2 m/s 739 mmHg 69%
02:00 -3°C° 0 mm 2 m/s 740 mmHg 70%
03:00 -4°C° 0 mm 3 m/s 740 mmHg 70%
04:00 -4°C° 0 mm 3 m/s 741 mmHg 70%
05:00 -4°C° 0 mm 3 m/s 741 mmHg 68%
06:00 -4°C° 0 mm 3 m/s 742 mmHg 66%
07:00 -4°C° 0 mm 3 m/s 742 mmHg 64%
08:00 -3°C° 0 mm 4 m/s 743 mmHg 58%
09:00 -2°C° 0 mm 4 m/s 743 mmHg 52%
10:00 -2°C° 0 mm 5 m/s 744 mmHg 46%
11:00 -1°C° 0 mm 5 m/s 744 mmHg 43%
12:00 -1°C° 0 mm 5 m/s 744 mmHg 41%
13:00 0°C° 0 mm 5 m/s 744 mmHg 38%
14:00 -1°C° 0 mm 5 m/s 744 mmHg 39%
15:00 -1°C° 0 mm 4 m/s 745 mmHg 40%
16:00 -1°C° 0 mm 4 m/s 745 mmHg 40%
17:00 -1°C° 0 mm 3 m/s 745 mmHg 45%
18:00 -2°C° 0 mm 2 m/s 746 mmHg 50%
19:00 -1°C° 0 mm 1 m/s 746 mmHg 55%
20:00 -1°C° 0 mm 1 m/s 746 mmHg 55%
21:00 -1°C° 0 mm 1 m/s 747 mmHg 56%
22:00 -1°C° 0 mm 1 m/s 747 mmHg 57%
23:00 -1°C° 0 mm 1 m/s 747 mmHg 57%

7 Martie, Duminică

Timp Temperatura Precipitaţii Vânt Presiune Umiditate
00:00 -1°C° 0 mm 1 m/s 747 mmHg 58%
01:00 -1°C° 0 mm 1 m/s 747 mmHg 58%
02:00 -3°C° 0 mm 2 m/s 747 mmHg 59%
03:00 -3°C° 0 mm 2 m/s 747 mmHg 60%
04:00 -4°C° 0 mm 2 m/s 747 mmHg 61%
05:00 -4°C° 0 mm 2 m/s 747 mmHg 61%
06:00 -3°C° 0 mm 2 m/s 747 mmHg 61%
07:00 -4°C° 0 mm 3 m/s 746 mmHg 62%
08:00 -2°C° 0 mm 3 m/s 746 mmHg 56%
09:00 -2°C° 0 mm 4 m/s 746 mmHg 51%
10:00 -1°C° 0 mm 4 m/s 746 mmHg 46%
11:00 0°C° 0 mm 4 m/s 746 mmHg 44%
12:00 0°C° 0 mm 5 m/s 745 mmHg 43%
13:00 +1°C° 0 mm 5 m/s 745 mmHg 41%
14:00 +1°C° 0 mm 4 m/s 744 mmHg 42%
15:00 +1°C° 0 mm 4 m/s 744 mmHg 44%
16:00 0°C° 0 mm 4 m/s 743 mmHg 45%
17:00 -1°C° 0 mm 4 m/s 743 mmHg 49%
18:00 -1°C° 0 mm 3 m/s 742 mmHg 53%
19:00 -2°C° 0 mm 3 m/s 742 mmHg 58%
20:00 -2°C° 0 mm 3 m/s 742 mmHg 58%
21:00 -4°C° 0 mm 3 m/s 742 mmHg 59%
22:00 -4°C° 0 mm 4 m/s 742 mmHg 60%
23:00 -4°C° 0 mm 4 m/s 741 mmHg 60%
Arată mai mult

Formular de consimțământ

Meteoprog și furnizorii noștri de servicii pot stoca și accesa date personale, precum cookies, identificatori de dispozitiv sau alte tehnologii similare pe dispozitivul dumneavoastră și procesa astfel de date pentru a personaliza conținutul și reclamele, dar și pentru a oferi caracteristici de social media și pentru a analiza traficul.

  • Stocarea și/sau accesarea informațiilor pe dispozitivul dumneavoastră

    Cookies, identificatori de dispozitiv sau alte informații pot fi stocate sau accesate pe dispozitiv în scopurile indicate mai sus.

  • Reclame și conținut personalizat, evaluarea reclamelor și a conținutului, informații despre audiențe și dezvoltarea produselor

    Reclamele și conținutul pot fi personalizate pe baza unui profil. Pot fi adăugate date suplimentare pentru a personaliza mai bine reclamele și conținutul. Performanța reclamelor și conținutului poate fi măsurată. Pot fi obținute informații despre utilizatorii care au văzut reclamele și conținutul. Aceste date pot fi utilizate pentru a dezvolta sau îmbunătăți experiența utilizatorilor, sistemele și software-ul.

Dând clic pe ‘Sunt de acord’, permiteți utilizarea cookie-urilor menționate, a identificatorilor de dispozitiv, balizelor web sau altor tehnologii similare. Setările pot fi modificate din browser-ul dispozitivului dumneavoastră.

În anumite scopuri, interesele legitime pot prima asupra consimțământului. Puteți citi mai multe informații în acest sens în Politica privind Confidențialitatea Datelor și Cookie.